Terminal Aerodrome Forecast
Issued by NWS Denver/Boulder, CO

Home | Current Version | Previous Version | Text Only | Print | Product List | Glossary On
Versions: 1 2 3 4 5 6 7 8 9 10 11 12 13 14 15 16 17 18 19 20 21 22 23 24 25 26 27 28 29 30 31 32 33 34 35 36 37 38 39 40 41 42 43 44 45 46 47 48 49 50
000
FTUS45 KBOU 162059 AAA
TAFDEN
TAF AMD
KDEN 162059Z 1621/1724 26008KT P6SM FEW045 BKN060 OVC070
     FM170100 24006KT P6SM SCT060 SCT220
     FM170400 19008KT P6SM FEW220
     FM171800 14006KT P6SM FEW220=

USA.gov is the U.S. government's official web portal to all federal, state and local government web resources and services.